User: anonymous   Login
Location: Unspecified
(0.0000°N, 0.0000°E)
Time: 21:47:43
(UTC+00:00)
Language:

COSMOS 2498 - Orbit

View from above orbital plane
View from above orbital plane
View from above satellite
View from above satellite

Ground track
Ground track

The orbit data is extracted from the following two-line orbital elements,

1 39763U 14028C   17117.79081373 +.00000010 +00000-0 +00000-0 0  9999
2 39763 082.4509 039.2329 0021272 138.9341 221.3350 12.42895141132996
Epoch (UTC): 27 April 2017 18:58:46
Eccentricity: 0.0021272
inclination: 82.4509°
perigee height: 1477 km
apogee height: 1511 km
right ascension of ascending node: 39.2329°
argument of perigee: 138.9341°
revolutions per day: 12.42895141
mean anomaly at epoch: 221.3350°
orbit number at epoch: 13299

The dashed part of the orbit path shows where the satellite is in the earth's shadow,  

DLR